This demonstration page uses our WeatherBlox Daily Observations layout. Learn more.

Left ArrowRight Arrow

44.89941, -97.11507

Hourly Observations for June 12, 2021

Temp ( °F °C ) Dew Point ( °F °C ) Humidity (%) Winds ( mph kmh ) Pressure ( in mb ) Visibility ( mi km ) Precip ( " mm )
12:53 am 00:53 Clear 62 16.7 49 9.4 62 62 Calm 29.98 1015 10 16 0.00 0.00
1:53 am 01:53 Clear 58 14.4 50 10 75 75 SE 3 6 30.00 1016 10 16 0.00 0.00
2:53 am 02:53 Clear 56 13.3 50 10 81 81 SSE 3 6 30.00 1016 10 16 0.00 0.00
3:53 am 03:53 Clear 55 12.8 51 10.6 87 87 S 3 6 30.01 1016 10 16 0.00 0.00
4:53 am 04:53 Clear 54 12.2 52 11.1 93 93 Calm 30.03 1017 10 16 0.00 0.00
5:53 am 05:53 Sunny 53 11.7 51 10.6 93 93 Calm 30.05 1018 10 16 0.00 0.00
6:53 am 06:53 Sunny 56 13.3 53 11.7 90 90 Calm 30.06 1018 10 16 0.00 0.00
7:53 am 07:53 Sunny 64 17.8 56 13.3 75 75 WSW 3 6 30.05 1018 10 16 0.00 0.00
8:53 am 08:53 Sunny 69 20.6 52 11.1 55 55 W 8 13 30.06 1018 10 16 0.00 0.00
9:53 am 09:53 Sunny 72 22.2 50 10 46 46 W 10 17 30.07 1018 10 16 0.00 0.00
10:53 am 10:53 Sunny 75 23.9 47 8.3 37 37 W 12 19 30.06 1018 10 16 0.00 0.00
11:53 am 11:53 Sunny 77 25 46 7.8 33 33 W 8 13 30.06 1018 10 16 0.00 0.00
12:53 pm 12:53 Sunny 78 25.6 44 6.7 30 30 NW 9 15 30.04 1017 10 16 0.00 0.00
1:53 pm 13:53 Sunny 79 26.1 44 6.7 29 29 WNW 9 15 30.04 1017 10 16 0.00 0.00
2:53 pm 14:53 Sunny 81 27.2 45 7.2 28 28 undefined N/A 30.03 1017 10 16 0.00 0.00
3:53 pm 15:53 Sunny 81 27.2 43 6.1 26 26 VRB 3 6 30.01 1016 10 16 0.00 0.00
4:53 pm 16:53 Sunny 82 27.8 42 5.6 24 24 Calm 30.00 1016 10 16 0.00 0.00
5:53 pm 17:53 Sunny 82 27.8 45 7.2 27 27 NNW 5 7 30.00 1016 10 16 0.00 0.00
6:53 pm 18:53 Sunny 82 27.8 42 5.6 24 24 Calm 29.99 1016 10 16 0.00 0.00
7:53 pm 19:53 Sunny 79 26.1 46 7.8 31 31 N 5 7 29.98 1015 10 16 0.00 0.00
8:53 pm 20:53 Sunny 78 25.6 45 7.2 31 31 Calm 29.98 1015 10 16 0.00 0.00
9:53 pm 21:53 Clear 74 23.3 48 8.9 40 40 SE 3 6 30.00 1016 10 16 0.00 0.00
10:53 pm 22:53 Clear 66 18.9 51 10.6 59 59 SE 5 7 30.01 1016 10 16 0.00 0.00
11:53 pm 23:53 Clear 68 20 50 10 53 53 SE 6 9 30.00 1016 10 16 0.00 0.00

Powered by AerisWeather